Tracking 25709 objects as of 24-May-2022
HD Live streaming from Space Station
objects crossing your sky now

ARIANE 5 R/B

Track ARIANE 5 R/B now!


NORAD ID: 43634
Int'l Code: 2018-074C
Perigee: 296.6 km
Apogee: 35,078.0 km
Inclination: 6.3 °
Period: 619.0 minutes
Semi major axis: 24058 km
RCS: Unknown
Launch date: September 25, 2018
Source: France (FR)
Launch site: FRENCH GUIANA (FRGUI)

Note: This is a ROCKET BODY
aabbcc
Your satellite tracking list
Your tracking list is empty




NASA's NSSDC Master Catalog

Two Line Element Set (TLE):
1 43634U 18074C   22144.43215357  .00000862  00000-0  64421-3 0  9999
2 43634   6.2776 334.3376 7228566 203.7271  90.7309  2.32651615 30795
Source of the keplerian elements: AFSPC